JST874 YBBN-YBRK

Flight info

Callsign JST874
Flight time 0h 52m
Altitude 34000
Route BN Q67 LOAFA Q64 OLDIB V308 RK
Aircraft A320/M-SDE3FGHIRWY/LB1

Departure

Time 2026-04-26 08:04
Airport Brisbane International Airport (YBBN)

Arrival

Time 2026-04-26 08:56
Airport Rockhampton Airport (YBRK)
Time Latitude Longitude Altitude Speed Heading
2026-04-26 08:04 -27.42195 152.90376 10931 ft 284 kts 27°
2026-04-26 08:04 -27.40559 152.91640 11313 ft 294 kts 53°
2026-04-26 08:04 -27.39346 152.93577 11489 ft 314 kts 58°
2026-04-26 08:04 -27.38064 152.95681 11667 ft 335 kts 57°
2026-04-26 08:05 -27.36702 152.97855 12121 ft 346 kts 55°
2026-04-26 08:05 -27.35281 153.00096 12541 ft 352 kts 56°
2026-04-26 08:05 -27.33858 153.02331 13348 ft 352 kts 56°
2026-04-26 08:05 -27.32428 153.04578 14019 ft 355 kts 56°
2026-04-26 08:06 -27.30989 153.06850 14595 ft 358 kts 56°
2026-04-26 08:06 -27.29500 153.09115 15145 ft 363 kts 51°
2026-04-26 08:06 -27.27692 153.11113 15688 ft 368 kts 43°
2026-04-26 08:06 -27.25757 153.13011 16233 ft 371 kts 43°
2026-04-26 08:07 -27.23799 153.14921 16767 ft 375 kts 43°
2026-04-26 08:07 -27.21701 153.16690 17304 ft 381 kts 33°
2026-04-26 08:07 -27.19308 153.18016 17844 ft 387 kts 22°
2026-04-26 08:07 -27.16727 153.18947 18405 ft 392 kts 19°
2026-04-26 08:08 -27.14111 153.19861 18902 ft 396 kts 19°
2026-04-26 08:08 -27.11466 153.20788 19358 ft 400 kts 19°
2026-04-26 08:08 -27.08792 153.21728 19808 ft 406 kts 18°
2026-04-26 08:08 -27.06082 153.22682 20274 ft 411 kts 18°
2026-04-26 08:09 -27.03319 153.23559 20769 ft 415 kts 12°
2026-04-26 08:09 -27.00445 153.23957 21244 ft 418 kts
2026-04-26 08:09 -26.97524 153.24022 21714 ft 422 kts
2026-04-26 08:09 -26.94575 153.24081 22189 ft 425 kts
2026-04-26 08:10 -26.91606 153.24140 22657 ft 428 kts 360°
2026-04-26 08:10 -26.88617 153.24202 23107 ft 431 kts 360°
2026-04-26 08:10 -26.85606 153.24266 23553 ft 435 kts 360°
2026-04-26 08:10 -26.82567 153.24330 23920 ft 438 kts 359°
2026-04-26 08:11 -26.79513 153.24397 24286 ft 441 kts 359°
2026-04-26 08:11 -26.76442 153.24463 24653 ft 443 kts 359°
2026-04-26 08:11 -26.73357 153.24531 25030 ft 444 kts 359°
2026-04-26 08:11 -26.70265 153.24488 25386 ft 444 kts 352°
2026-04-26 08:12 -26.67223 153.23948 25749 ft 442 kts 343°
2026-04-26 08:12 -26.64277 153.22968 26103 ft 442 kts 339°
2026-04-26 08:12 -26.61336 153.21935 26463 ft 444 kts 339°
2026-04-26 08:12 -26.58383 153.20904 26828 ft 445 kts 339°
2026-04-26 08:13 -26.55418 153.19877 27167 ft 447 kts 339°
2026-04-26 08:13 -26.52445 153.18853 27566 ft 447 kts 339°
2026-04-26 08:13 -26.49468 153.17829 27949 ft 448 kts 339°
2026-04-26 08:13 -26.46488 153.16801 28311 ft 449 kts 338°
2026-04-26 08:14 -26.43497 153.15767 28662 ft 451 kts 338°
2026-04-26 08:14 -26.40496 153.14731 29000 ft 452 kts 338°
2026-04-26 08:14 -26.37487 153.13695 29400 ft 452 kts 338°
2026-04-26 08:14 -26.34489 153.12663 29904 ft 450 kts 338°
2026-04-26 08:15 -26.31507 153.11637 30376 ft 448 kts 338°
2026-04-26 08:15 -26.28612 153.10432 30789 ft 441 kts 330°
2026-04-26 08:15 -26.25959 153.08789 31197 ft 433 kts 321°
2026-04-26 08:15 -26.23540 153.06834 31651 ft 428 kts 318°
2026-04-26 08:16 -26.21158 153.04874 32144 ft 424 kts 318°
2026-04-26 08:16 -26.18792 153.02934 32653 ft 421 kts 318°
2026-04-26 08:16 -26.16443 153.01014 33143 ft 417 kts 318°
2026-04-26 08:16 -26.14112 152.99113 33648 ft 414 kts 317°
2026-04-26 08:17 -26.11798 152.97228 34056 ft 412 kts 317°
2026-04-26 08:17 -26.09490 152.95351 34142 ft 412 kts 317°
2026-04-26 08:17 -26.04810 152.91581 34146 ft 417 kts 318°
2026-04-26 08:18 -26.00093 152.87810 34146 ft 418 kts 318°
2026-04-26 08:18 -25.95377 152.84036 34147 ft 418 kts 318°
2026-04-26 08:19 -25.90671 152.80263 34143 ft 415 kts 318°
2026-04-26 08:19 -25.85986 152.76519 34149 ft 415 kts 318°
2026-04-26 08:20 -25.81305 152.72773 34149 ft 414 kts 318°
2026-04-26 08:20 -25.76629 152.69031 34149 ft 414 kts 318°
2026-04-26 08:21 -25.72738 152.65928 34153 ft 414 kts 318°
2026-04-26 08:21 -25.68055 152.62202 34153 ft 414 kts 318°
2026-04-26 08:22 -25.63374 152.58478 34144 ft 414 kts 318°
2026-04-26 08:22 -25.58696 152.54753 34134 ft 414 kts 318°
2026-04-26 08:23 -25.54025 152.51037 34134 ft 413 kts 319°
2026-04-26 08:23 -25.49347 152.47332 34138 ft 413 kts 319°
2026-04-26 08:24 -25.44677 152.43621 34140 ft 413 kts 319°
2026-04-26 08:24 -25.40009 152.39909 34137 ft 413 kts 319°
2026-04-26 08:25 -25.35337 152.36211 34133 ft 413 kts 319°
2026-04-26 08:25 -25.30695 152.32544 34132 ft 413 kts 319°
2026-04-26 08:26 -25.25998 152.28827 34114 ft 413 kts 319°
2026-04-26 08:26 -25.21354 152.25167 34119 ft 413 kts 319°
2026-04-26 08:27 -25.16678 152.21485 34122 ft 412 kts 319°
2026-04-26 08:27 -25.12012 152.17804 34126 ft 413 kts 319°
2026-04-26 08:28 -25.07336 152.14122 34127 ft 413 kts 319°
2026-04-26 08:28 -25.02791 152.10290 34132 ft 407 kts 310°
2026-04-26 08:29 -24.98869 152.05809 34130 ft 406 kts 309°
2026-04-26 08:29 -24.94953 152.01326 34129 ft 406 kts 309°
2026-04-26 08:30 -24.91034 151.96844 34129 ft 406 kts 309°
2026-04-26 08:30 -24.87111 151.92366 34124 ft 406 kts 309°
2026-04-26 08:31 -24.83189 151.87891 34123 ft 406 kts 309°
2026-04-26 08:31 -24.79257 151.83417 34126 ft 407 kts 309°
2026-04-26 08:32 -24.75324 151.78940 34132 ft 407 kts 309°
2026-04-26 08:32 -24.71385 151.74462 34131 ft 407 kts 309°
2026-04-26 08:33 -24.67448 151.69987 34130 ft 407 kts 309°
2026-04-26 08:33 -24.63509 151.65509 34137 ft 407 kts 309°
2026-04-26 08:34 -24.59569 151.61038 34132 ft 407 kts 310°
2026-04-26 08:34 -24.55625 151.56565 34119 ft 407 kts 310°
2026-04-26 08:35 -24.51680 151.52098 34121 ft 407 kts 310°
2026-04-26 08:35 -24.47737 151.47635 34121 ft 407 kts 310°
2026-04-26 08:36 -24.43812 151.43210 34126 ft 407 kts 310°
2026-04-26 08:36 -24.39867 151.38762 34124 ft 407 kts 310°
2026-04-26 08:37 -24.35918 151.34307 34130 ft 407 kts 310°
2026-04-26 08:37 -24.31987 151.29878 34144 ft 404 kts 310°
2026-04-26 08:38 -24.28079 151.25482 34141 ft 402 kts 310°
2026-04-26 08:38 -24.24185 151.21107 34137 ft 400 kts 310°
2026-04-26 08:39 -24.20297 151.16736 34114 ft 400 kts 310°
2026-04-26 08:39 -24.16407 151.12361 32981 ft 408 kts 310°
2026-04-26 08:40 -24.14384 151.10081 31507 ft 426 kts 311°
2026-04-26 08:40 -24.12297 151.07735 30516 ft 432 kts 311°
2026-04-26 08:40 -24.10188 151.05374 29601 ft 434 kts 311°
2026-04-26 08:40 -24.08079 151.03017 28775 ft 433 kts 311°
2026-04-26 08:41 -24.05939 151.00709 28002 ft 433 kts 316°
2026-04-26 08:41 -24.03538 150.98721 27294 ft 432 kts 321°
2026-04-26 08:41 -24.01114 150.96805 26607 ft 429 kts 321°
2026-04-26 08:41 -23.98703 150.94896 25946 ft 426 kts 321°
2026-04-26 08:42 -23.96313 150.92998 25319 ft 423 kts 321°
2026-04-26 08:42 -23.93938 150.91110 24706 ft 421 kts 322°
2026-04-26 08:42 -23.91579 150.89234 24107 ft 418 kts 322°
2026-04-26 08:42 -23.89231 150.87367 23484 ft 416 kts 322°
2026-04-26 08:43 -23.86805 150.85656 22795 ft 415 kts 331°
2026-04-26 08:43 -23.84140 150.84448 22154 ft 414 kts 338°
2026-04-26 08:43 -23.81435 150.83391 21547 ft 412 kts 339°
2026-04-26 08:43 -23.78740 150.82343 20980 ft 409 kts 339°
2026-04-26 08:44 -23.76067 150.81305 20449 ft 407 kts 339°
2026-04-26 08:44 -23.73414 150.80271 19942 ft 404 kts 339°
2026-04-26 08:44 -23.70776 150.79242 19454 ft 401 kts 339°
2026-04-26 08:44 -23.68150 150.78218 18967 ft 399 kts 339°
2026-04-26 08:45 -23.65546 150.77202 18471 ft 397 kts 340°
2026-04-26 08:45 -23.62952 150.76188 17908 ft 395 kts 340°
2026-04-26 08:45 -23.60378 150.75181 17346 ft 392 kts 340°
2026-04-26 08:45 -23.57816 150.74181 16777 ft 390 kts 340°
2026-04-26 08:46 -23.55268 150.73185 16220 ft 387 kts 340°
2026-04-26 08:46 -23.52743 150.72199 15663 ft 385 kts 340°
2026-04-26 08:46 -23.50232 150.71223 15122 ft 382 kts 341°
2026-04-26 08:46 -23.47737 150.70256 14567 ft 379 kts 341°
2026-04-26 08:47 -23.45261 150.69297 14044 ft 377 kts 341°
2026-04-26 08:47 -23.42801 150.68343 13461 ft 374 kts 342°
2026-04-26 08:47 -23.40354 150.67395 12861 ft 372 kts 342°
2026-04-26 08:47 -23.37921 150.66450 12264 ft 371 kts 342°
2026-04-26 08:48 -23.35521 150.65516 11961 ft 357 kts 341°
2026-04-26 08:48 -23.33271 150.64635 11832 ft 331 kts 342°
2026-04-26 08:48 -23.31164 150.63812 11492 ft 316 kts 342°
2026-04-26 08:48 -23.29110 150.63013 10919 ft 312 kts 342°
2026-04-26 08:49 -23.27073 150.62225 10321 ft 309 kts 342°
2026-04-26 08:49 -23.25051 150.61446 9689 ft 308 kts 342°
2026-04-26 08:49 -23.23037 150.60670 9018 ft 307 kts 342°
2026-04-26 08:49 -23.21033 150.59894 8384 ft 305 kts 342°
2026-04-26 08:50 -23.19164 150.58822 7757 ft 305 kts 323°
2026-04-26 08:50 -23.17717 150.57150 7150 ft 304 kts 302°
2026-04-26 08:50 -23.16848 150.55073 6549 ft 302 kts 283°
2026-04-26 08:50 -23.16365 150.52853 5839 ft 303 kts 281°
2026-04-26 08:51 -23.15485 150.48551 5404 ft 282 kts 272°
2026-04-26 08:51 -23.15651 150.46502 5278 ft 266 kts 248°
2026-04-26 08:51 -23.16463 150.44741 4884 ft 259 kts 225°
2026-04-26 08:52 -23.17673 150.43292 4486 ft 260 kts 220°
2026-04-26 08:52 -23.18901 150.41849 4100 ft 258 kts 221°
2026-04-26 08:52 -23.20230 150.40660 3741 ft 236 kts 195°
2026-04-26 08:52 -23.21754 150.40419 3419 ft 217 kts 166°
2026-04-26 08:53 -23.23157 150.40935 3095 ft 212 kts 154°
2026-04-26 08:53 -23.24514 150.41537 2791 ft 208 kts 154°
2026-04-26 08:53 -23.25818 150.42115 2492 ft 197 kts 154°
2026-04-26 08:53 -23.27046 150.42659 2232 ft 186 kts 153°
2026-04-26 08:54 -23.28212 150.43177 1995 ft 175 kts 153°
2026-04-26 08:54 -23.29318 150.43665 1723 ft 163 kts 153°
2026-04-26 08:54 -23.30314 150.44104 1514 ft 148 kts 153°
2026-04-26 08:54 -23.31230 150.44509 1313 ft 138 kts 153°
2026-04-26 08:55 -23.32117 150.44906 1119 ft 137 kts 154°
2026-04-26 08:55 -23.32994 150.45301 934 ft 136 kts 153°
2026-04-26 08:55 -23.33866 150.45686 690 ft 134 kts 154°
2026-04-26 08:55 -23.34718 150.46090 491 ft 134 kts 155°
2026-04-26 08:56 -23.35574 150.46488 390 ft 133 kts 157°
2026-04-26 08:56 -23.36148 150.46732 297 ft 134 kts 159°
2026-04-26 08:56 -23.37299 150.47228 42 ft 123 kts 157°
2026-04-26 08:56 -23.37814 150.47457 40 ft 31 kts 159°
2026-04-26 08:57 -23.37892 150.47542 38 ft 16 kts 76°
2026-04-26 08:57 -23.37849 150.47642 40 ft 12 kts 68°
2026-04-26 08:57 -23.37833 150.47685 40 ft 4 kts 67°
2026-04-26 08:57 -23.37830 150.47725 40 ft 6 kts 100°
2026-04-26 08:58 -23.37841 150.47769 40 ft 4 kts 121°
2026-04-26 08:58 -23.37846 150.47769 39 ft 0 kts 162°